H-2A DEB, 43069

Orbit data source: Space-Track

H-2A DEB, 43069 is space debris in SSO originally from a launch on Sat, 23 Dec 2017 UTC launched from the Tanegashima Space Center (TNSTA). Debris objects in space refer to the collection of defunct objects orbiting the Earth. Examples of debris include non-operational satellites, rocket bodies, and fragments generated from explosions, collisions, or faulty payload assembly.

Loading next visibility...
Identifier
43069, 2017-082E
Orbit
SSO
Country
Flag of JPJP / JPN
Related business
Manufacturer
MELCO
Mission
Spacecraft
Bus & Motor
Unknown
Mass
Unknown
Launch date (UTC)
2017-12-23 (9 years ago)
Launch vehicle
Unknown
Launch site
Tanegashima Space Center (TNSTA)
Object type
Payload
Rocket body
Debris
Shape & HBR
Unknown shape, 0.1 m
Radar Cross Section
Medium (>0.1 m² and <1 m²)

Expand to show TLE details & history
Last TLE update: 11 hours ago

TLE from 11 hours ago
0 H-2A DEB
1 43069U 17082E   26267.18195360  .00002772  00000-0  60897-3 0  9997
2 43069  98.2446 333.7647 0023090 181.4802 178.6333 14.58169776461161
Epoch: 2026-09-24T04:22Z
TLE epoch observation values (Epoch: 2026-09-24T04:22:00.791Z)
Latitude
0.00006°
Longitude
-94.76101°
Altitude
718.411 km
Speed
7.488 km/s
True Right ascension
22h 15m 03s
True Declination
0° 00' 00"
Sunlit
Object was in full shadow at epoch
Visualization orbit readout
Latitude
Unknown
Longitude
Unknown
Altitude
Unknown
Speed
Unknown
Apparent Right ascension
Unknown
Apparent Declination
Unknown
Sunlit
N/A
Visualization observer readout
Local Sidereal Time
08:12:15
Azimuth
Unknown
Elevation
Unknown
Doppler factor
Unknown
Orbital elements
Apogee altitude
712.51 km
Perigee altitude
679.841 km
Semi-major axis
7,074.312 km
Eccentricity
0.00231
Inclination
98.2446°
RAAN
333.7647°
Arg. of periapsis
181.4802°
True anomaly
178.63959°
Mean anomaly
178.6333°
Eccentric anomaly
178.63645°
Mean motion
3.64768 °/min
Orbital period
98.69 mins
BSTAR
0.00060897
Loading maneuver chart data...
Computing Atmospheric mass density...
Loading historical data...
Loading historical data...
Loading historical data...
Loading historical data...
Loading historical data...
Loading historical data...
Loading historical data...
Other satellites on launch #82 in the year 2017 (2017-12-23 UTC)

Documentation

Showing up to 5 results
|